sat.trackr.live / text

‹ back to catalog

STARLINK-2750

NORAD 48691 · 2021-044BF

PAYLOAD ACTIVE UNKNOWN

§ Identity

Operator
Country
US
Launch date
2021-05-26
Launch site
AFETR
Launch vehicle
Mass (kg)
RCS (m²)

Purposes: comms

External: N2YO · Heavens-Above · Gunter

§ Orbital elements

Epoch: 2026-09-09T15:26:28.253184Z

Period
94.01 min
Inclination
53.1588°
Eccentricity
0.0001003
Mean motion
15.31712069 rev/d
Perigee alt
470.0 km
Apogee alt
471.4 km
Semi-major
6,848.8 km
B*
8.0117e-5
RAAN
299.2332°
Arg perigee
78.0610°
Mean anomaly
282.0504°
Rev number
29,254

§ Raw data

STARLINK-27501 48691U 21044BF  26252.64338256  .00002123  00000+0  80117-4 0  99912 48691  53.1588 299.2332 0001003  78.0610 282.0504 15.31712069292544

JSON: /api/v1/satellites/48691 · /tle

For live sub-satellite position, see the globe view (requires WebGL).

§ Visibility from observer

Set your observer location to see the next 7 days of passes ≥ 10°. The values pass through the URL so the page stays shareable.

No JS? Fill the form by hand. The geolocation button needs JavaScript.